Погода в Волынщине

Россия / Рязанская область     53°37′04″N   40°32′07″E
темп.,
°C
ветер,
м/с
пор.,
м/с
влажн.,
%
обл.,
%
осадки,
мм/ч
давл.,
гПа
погр.,
м
14 апреля, ср
ср1400:00+12юв514546 0.0 1024275
03:00+10юв410651 0.0 1024171
06:00+9юв4970100 0.0 1023134
09:00+13юв5850100 0.0 1022295
12:00+18юв683292 0.0 1021844
15:00+20юв68251 0.0 10191798
18:00+18юв483332 0.0 1018243
21:00+13юв5124998 0.0 1019227
15 апреля, чт
чт1500:00+11юв355558 0.0 101876
03:00+9вюв356251 0.0 101866
06:00+9вюв346983 0.0 101759
09:00+13вюв455691 0.0 1017255
12:00+18вюв5739100 0.0 10151125
15:00+20юв673468 0.0 10142018
18:00+18юв3542100 0.0 1014121
21:00+14юз345891 0.0 101673
16 апреля, пт
пт1600:00+12ссв2264100 0.0 101620
03:00+11всв2378100 0.4 101635
06:00+9всв3585100 2.3 1017120
09:00+13в6867100 3.1 1018455
12:00+17в6751100 0.0 10181132
15:00+19в5646100 0.0 10181723
18:00+17всв61057100 0.2 1018482
21:00+12всв8148096 0.8 1019373
17 апреля, сб
сб1700:00+10всв7138510 0.3 1020381
03:00+9всв612895 0.3 1021361
06:00+8всв713895 0.0 1021382
09:00+10всв8127389 0.0 1022545
12:00+14всв9116199 0.0 1022854
15:00+16в9105467 0.0 10211343
18:00+14всв9125752 0.0 1022932
21:00+11в7146052 0.1 1023689
18 апреля, вс
вс1800:00+9в7145687 0.0 1024564
03:00+8всв6115899 0.0 1025381
06:00+7всв61258100 0.0 1025408
09:00+9в7104968 0.0 1026652
12:00+13в783736 0.0 10261451
15:00+14всв77335 0.0 10261893
18:00+13всв67395 0.0 10261735
21:00+10св511565 0.0 1028340